SCP
0 0 0 0 0 0 0 0 0 0 -0 0 -0 0 0 0 0 0 0 0 0 0 0 0 0 0 0 0 0 0 0 0 0 0 0 0 0 0
0 0 0 0 0 0 0 0 0 0 0 0 0 0 0 0 0 0 0 0 0 0 0 0 0 0 0 0 0 0 0 0 0 0 0 0 0 0
0 0 0 0 0 0 0 0 0 0 0 0 0 0 0 0 0 0 0 0 0 0 0 0 0 0 0 0 0 0 0 0 0 0 0 0 0 0
0 0 0 0 0 0 0 0 0 0 0 0 0 0 0 0 0 0 0 0 0 0 0 0 0 0 0 0 0 0 0 0 0 0 0 0 0 0
0 0 0 0 0 0 0 0 0 0 0 0 0 0 0 0 0 0 0 0 0 0 0 0 0 0 0 0 0 0 0 0 0 0 0 0 0 0
0 0 0 0 0 0 0 0 0 0 0 0 0 0 0 0 0 0 0 0 0 0 0 0 0 0 0 0 0 0 0 0 0 0 0 0 0 0
0 0 0 0 0 0 0 0 0 0 0 0 0 0 0 0 0 0 0 0 0 0 0 0 0 0 0 0 0 0 0 0 0 0 0 0 0 0
0 0 0 0 0 0 0 0 0 0 0 0 0 0 0 0 0 0 0 0 0 0 0 0 0 0 0 0 0 0 0 0 0 0 0 0 0 0
0 0 0 0 0 0 0 0 0 0 0 0 0 0 0 0 0 0 0 0 0 0 0 0 0 0 0 0 0 0 0 0 0 0 0 0 0 0
0 0 0 0 0 0 0 0 0 0 0 0 0 0 0 0 0 0 0 0 0 0 0 0 0 0 0 0 0 0 0 0 0 0 0 0 0 0
0 0 0 0 0 0 0 0 0 0 0 0 0 0 0 -0 -0 0 0 0 0 0 0 0 0 0 0 0 0 0 0 0 0 0 0 0 0 0
0 0 0 0 0 0 0 0 0 0 0 0 0 0 0 0 0 0 0 0 0 0 0 0 0 0 0 0 0 0 0 0 0 0 0 0 0 0
0 0 0 0 0 0 0 0 0 0 0 0 0 0 0 0 0 0 0 0 0 0 0 0 0 0 0 0 0 0 0 0 0 0 0 0 0 0
0 0 0 0 0 0 0 0 0 0 0 0 0 0 -0 -0 -0 0 0 0 0 0 0 0 0 0 0 0 0 0 0 0 0 0 0 0 0 0
0 0 0 0 0 0 0 0 0 0 0 0 0 -0 0 0 0 -0 0 0 0 0 0 0 0 0 0 0 0 0 0 0 0 0 0 0 0 0
0 0 0 0 0 0 0 0 0 0 0 0 -0 -0 0 0 0 -0 0 0 0 0 0 0 0 0 0 0 0 0 0 0 0 0 0 0 0 0
-0 0 0 0 0 0 0 0 0 0 0 0 -0 -0 0 0 0 -0 -0 0 0 0 0 0 0 0 0 0 0 0 0 0 0 0 0 0 0 0
-0 0 0 0 0 0 0 0 0 -0 -0 -0 -0 -0 -0 0 0 -0 -0 0 0 0 0 0 0 0 0 0 0 0 0 0 0 0 0 0 0 0
0 0 0 0 0 -0 -0 -0 -0 -0 -0 -0 -0 -0 -0 -0 -0 -0 -0 -0 -0 0 0 0 0 0 0 0 0 0 0 0 0 0 0 0 0 0
0 0 0 0 0 0 -0 -0 -0 -0 -0 -0 -0 0 -0 -0 0 0 0 0 0 -0 -0 0 0 0 0 0 0 0 0 0 0 0 0 0 0 0
0 0 0 0 0 0 0 0 0 -0 -0 -0 -0 0 0 0 0 0 0 0 0 0 0 0 0 0 0 0 0 0 0 0 0 0 0 0 0 0
0 0 0 0 0 0 0 0 -0 -0 -0 -0 -0 0 0 0 0 0 0 0 0 0 0 0 0 0 0 0 0 0 0 0 0 0 0 0 0 0
0 0 0 0 0 0 0 0 0 -0 -0 -0 -0 -0 -0 0 0 0 0 0 0 0 0 0 0 0 0 0 0 0 0 0 0 0 0 0 0 0
Wind_Speed_500mb
38 41 44 45 43 44 45 45 44 37 55 54 50 50 49 50 49 39 44 43 45 47 41 42 41 39 38 37 36 37 44 50 54 58 58 57 53 52
40 38 40 46 49 49 52 52 49 49 44 57 65 63 59 55 48 47 48 46 48 48 45 43 43 44 41 41 40 39 41 45 51 49 52 59 51 54
40 44 48 50 53 55 57 55 51 52 63 64 39 58 68 68 65 58 51 55 56 45 47 46 46 45 47 44 42 43 40 41 47 51 52 50 50 62
53 55 55 57 60 58 55 55 60 58 60 63 63 63 60 64 69 72 68 56 49 52 51 52 47 46 48 49 44 40 41 41 41 48 51 51 59 62
60 64 68 65 61 63 62 61 58 54 51 55 66 66 66 63 63 64 70 78 77 64 58 56 57 50 51 51 48 43 40 42 42 40 47 52 51 52
66 62 62 63 64 62 54 50 50 52 56 63 71 73 70 65 62 61 62 61 63 72 66 63 68 52 57 54 53 48 43 43 43 43 45 46 49 52
60 60 59 57 56 46 49 56 61 67 67 69 72 71 62 65 66 63 63 59 64 61 74 78 62 61 58 60 53 49 49 50 45 43 45 46 46 46
62 60 55 55 48 54 58 58 56 58 62 58 69 69 69 62 68 62 60 59 64 52 47 71 79 67 65 63 57 52 51 42 41 42 41 44 47 46
61 62 58 55 53 54 53 54 60 62 59 59 69 73 70 64 64 65 64 66 69 64 62 70 64 71 71 65 64 56 48 45 46 47 46 44 42 46
61 60 56 55 54 47 52 63 67 66 61 58 60 63 60 55 58 65 74 75 76 71 68 79 71 70 74 66 71 61 52 50 51 50 48 44 42 44
62 59 56 56 56 49 53 65 70 68 59 52 56 56 56 53 58 62 73 79 81 79 75 81 76 81 74 75 73 69 60 54 53 49 46 39 34 35
63 61 60 61 55 50 54 62 69 67 65 62 58 48 46 53 55 53 67 78 91 83 76 81 73 68 74 85 78 73 63 53 49 39 33 31 29 31
64 66 64 58 54 50 55 61 57 57 60 58 56 58 61 64 63 67 74 90 100 100 90 73 68 71 78 42 72 75 65 63 54 45 36 33 29 25
60 62 61 56 49 56 60 54 46 46 47 46 46 53 62 71 78 83 106 95 96 100 90 84 76 70 73 68 52 73 69 59 56 47 42 33 30 24
57 58 51 49 61 63 55 45 40 39 43 49 52 58 65 73 80 92 77 57 50 67 75 74 78 77 73 73 71 56 72 66 56 46 44 38 33 28
55 57 63 62 55 55 47 37 34 32 40 47 53 61 66 73 79 92 74 33 27 48 56 62 77 71 80 80 62 60 72 73 61 50 40 34 33 29
64 61 56 53 55 48 38 33 36 44 46 47 51 55 59 68 75 80 69 31 30 29 40 52 57 71 61 62 61 60 69 61 56 48 43 40 31 25
60 61 54 50 45 37 36 47 53 52 44 46 48 46 51 57 64 68 69 52 9 20 30 52 49 37 72 65 70 76 68 54 46 48 44 36 28 24
52 51 50 49 48 56 52 53 57 48 41 44 43 40 41 45 50 56 56 58 54 43 36 23 33 23 50 37 48 59 45 45 46 45 37 34 31 19
46 51 52 53 53 56 56 56 53 37 40 39 38 36 35 34 39 42 44 42 42 40 39 35 28 27 33 40 42 39 39 47 45 38 42 38 27 22
47 49 51 51 50 47 46 46 40 40 41 33 30 28 25 25 26 29 27 29 25 27 32 28 24 16 17 18 21 21 24 28 35 38 38 31 27 28
47 48 48 44 44 44 44 43 46 48 38 25 26 26 26 20 17 19 20 17 15 14 15 14 11 11 16 22 30 31 27 26 26 29 30 29 28 24
50 48 48 47 45 43 41 38 39 40 36 38 42 39 30 21 19 13 9 11 6 4 2 1 2 7 11 14 16 18 17 19 21 21 22 23 25 26
Wind_Direction_500mb
326 323 321 319 318 317 318 321 324 318 313 300 297 295 297 296 290 284 287 294 285 292 294 295 292 283 279 270 268 257 246 242 244 242 238 234 233 226
332 329 329 328 325 323 322 320 315 313 304 300 299 295 289 285 287 283 273 274 284 290 285 290 293 288 278 270 265 262 256 246 242 244 248 244 239 236
330 328 325 324 324 322 321 317 310 307 307 309 293 290 288 288 277 273 275 267 266 269 280 284 285 289 278 274 270 261 254 251 246 242 239 240 235 237
328 327 327 325 321 319 317 311 308 307 302 302 299 305 301 292 291 284 274 267 270 260 266 277 283 284 280 270 274 271 257 249 242 244 246 239 235 234
323 323 321 317 313 312 311 309 308 303 297 294 301 303 304 303 298 291 284 277 269 266 261 259 269 280 277 275 272 272 264 256 248 241 238 238 232 228
319 318 316 315 313 312 312 306 300 296 297 295 297 300 302 300 298 299 293 287 277 268 259 254 258 263 272 273 272 270 266 265 263 247 240 236 237 236
322 320 318 314 311 309 302 301 297 297 296 295 294 294 292 293 295 295 291 285 280 272 262 257 261 256 260 267 265 268 269 270 260 250 244 241 237 235
324 323 318 317 315 310 308 301 297 298 295 291 290 291 289 286 290 291 288 287 285 274 280 271 256 252 249 259 261 267 268 255 249 252 252 243 237 233
323 323 317 315 315 317 315 309 303 300 297 296 292 290 291 288 289 284 279 276 276 275 272 270 262 249 241 251 257 262 258 251 251 255 256 256 250 234
317 318 313 312 319 320 316 317 310 307 312 311 304 299 294 290 284 279 276 275 274 275 273 269 259 264 245 242 250 254 251 251 248 250 252 255 255 239
313 312 313 312 317 317 317 322 315 311 318 308 307 299 296 290 287 280 274 272 269 266 268 267 261 256 255 245 243 247 251 249 243 237 245 251 244 237
311 310 310 312 312 313 318 316 311 312 315 309 312 303 297 296 300 285 283 274 271 265 256 257 255 249 251 246 240 237 242 233 215 222 234 233 223 224
310 308 309 308 309 308 316 310 305 308 309 307 308 314 310 306 301 300 290 276 264 257 254 243 246 238 237 244 233 229 230 213 214 212 220 216 206 207
306 308 308 308 304 316 313 307 302 311 312 318 319 310 316 319 315 306 305 291 265 256 251 242 233 233 232 227 216 209 204 208 210 211 208 206 189 187
306 308 308 308 313 310 307 305 307 313 323 320 324 326 329 330 324 314 326 301 248 247 248 242 232 231 233 214 209 207 198 201 203 204 199 199 192 183
311 305 307 307 304 306 303 307 310 321 329 326 324 326 331 337 330 335 337 291 261 248 244 240 225 226 232 229 206 200 196 188 197 188 191 187 183 180
310 310 308 307 308 306 303 307 317 319 324 324 328 331 334 336 337 351 3 290 240 230 216 217 215 213 215 220 201 192 184 189 189 190 189 185 186 185
309 309 310 310 309 310 316 315 310 313 318 318 321 327 335 343 345 354 21 30 214 213 198 211 183 172 194 197 196 183 177 181 176 188 188 188 192 194
308 311 314 312 310 309 312 311 311 314 309 312 316 321 329 340 351 358 8 36 51 79 146 155 171 151 146 131 160 165 171 175 174 178 191 193 193 220
314 313 313 309 306 305 307 308 311 312 308 313 317 320 323 331 349 357 8 20 44 54 62 77 88 95 117 122 129 144 172 177 183 187 188 189 199 212
324 320 313 311 309 309 306 306 309 305 309 308 307 319 330 328 334 349 358 6 25 50 70 74 80 103 130 137 146 149 159 166 181 189 190 192 202 213
321 318 319 318 315 312 310 306 293 291 297 288 291 309 314 327 335 339 349 353 1 27 58 80 80 98 124 152 155 158 164 171 180 186 189 204 214 225
328 322 318 316 314 311 311 310 299 294 299 294 289 290 296 295 302 318 341 7 322 303 13 30 174 135 130 154 169 173 180 187 190 200 212 228 238 248
Wind_Speed_850mb
38 41 44 45 43 44 45 45 44 37 55 54 50 50 49 50 49 39 44 43 45 47 41 42 41 39 38 37 36 37 44 50 54 58 58 57 53 52
40 38 40 46 49 49 52 52 49 49 44 57 65 63 59 55 48 47 48 46 48 48 45 43 43 44 41 41 40 39 41 45 51 49 52 59 51 54
40 44 48 50 53 55 57 55 51 52 63 64 39 58 68 68 65 58 51 55 56 45 47 46 46 45 47 44 42 43 40 41 47 51 52 50 50 62
53 55 55 57 60 58 55 55 60 58 60 63 63 63 60 64 69 72 68 56 49 52 51 52 47 46 48 49 44 40 41 41 41 48 51 51 59 62
60 64 68 65 61 63 62 61 58 54 51 55 66 66 66 63 63 64 70 78 77 64 58 56 57 50 51 51 48 43 40 42 42 40 47 52 51 52
66 62 62 63 64 62 54 50 50 52 56 63 71 73 70 65 62 61 62 61 63 72 66 63 68 52 57 54 53 48 43 43 43 43 45 46 49 52
60 60 59 57 56 46 49 56 61 67 67 69 72 71 62 65 66 63 63 59 64 61 74 78 62 61 58 60 53 49 49 50 45 43 45 46 46 46
62 60 55 55 48 54 58 58 56 58 62 58 69 69 69 62 68 62 60 59 64 52 47 71 79 67 65 63 57 52 51 42 41 42 41 44 47 46
61 62 58 55 53 54 53 54 60 62 59 59 69 73 70 64 64 65 64 66 69 64 62 70 64 71 71 65 64 56 48 45 46 47 46 44 42 46
61 60 56 55 54 47 52 63 67 66 61 58 60 63 60 55 58 65 74 75 76 71 68 79 71 70 74 66 71 61 52 50 51 50 48 44 42 44
62 59 56 56 56 49 53 65 70 68 59 52 56 56 56 53 58 62 73 79 81 79 75 81 76 81 74 75 73 69 60 54 53 49 46 39 34 35
63 61 60 61 55 50 54 62 69 67 65 62 58 48 46 53 55 53 67 78 91 83 76 81 73 68 74 85 78 73 63 53 49 39 33 31 29 31
64 66 64 58 54 50 55 61 57 57 60 58 56 58 61 64 63 67 74 90 100 100 90 73 68 71 78 42 72 75 65 63 54 45 36 33 29 25
60 62 61 56 49 56 60 54 46 46 47 46 46 53 62 71 78 83 106 95 96 100 90 84 76 70 73 68 52 73 69 59 56 47 42 33 30 24
57 58 51 49 61 63 55 45 40 39 43 49 52 58 65 73 80 92 77 57 50 67 75 74 78 77 73 73 71 56 72 66 56 46 44 38 33 28
55 57 63 62 55 55 47 37 34 32 40 47 53 61 66 73 79 92 74 33 27 48 56 62 77 71 80 80 62 60 72 73 61 50 40 34 33 29
64 61 56 53 55 48 38 33 36 44 46 47 51 55 59 68 75 80 69 31 30 29 40 52 57 71 61 62 61 60 69 61 56 48 43 40 31 25
60 61 54 50 45 37 36 47 53 52 44 46 48 46 51 57 64 68 69 52 9 20 30 52 49 37 72 65 70 76 68 54 46 48 44 36 28 24
52 51 50 49 48 56 52 53 57 48 41 44 43 40 41 45 50 56 56 58 54 43 36 23 33 23 50 37 48 59 45 45 46 45 37 34 31 19
46 51 52 53 53 56 56 56 53 37 40 39 38 36 35 34 39 42 44 42 42 40 39 35 28 27 33 40 42 39 39 47 45 38 42 38 27 22
47 49 51 51 50 47 46 46 40 40 41 33 30 28 25 25 26 29 27 29 25 27 32 28 24 16 17 18 21 21 24 28 35 38 38 31 27 28
47 48 48 44 44 44 44 43 46 48 38 25 26 26 26 20 17 19 20 17 15 14 15 14 11 11 16 22 30 31 27 26 26 29 30 29 28 24
50 48 48 47 45 43 41 38 39 40 36 38 42 39 30 21 19 13 9 11 6 4 2 1 2 7 11 14 16 18 17 19 21 21 22 23 25 26
Wind_Direction_850mb
326 323 321 319 318 317 318 321 324 318 313 300 297 295 297 296 290 284 287 294 285 292 294 295 292 283 279 270 268 257 246 242 244 242 238 234 233 226
332 329 329 328 325 323 322 320 315 313 304 300 299 295 289 285 287 283 273 274 284 290 285 290 293 288 278 270 265 262 256 246 242 244 248 244 239 236
330 328 325 324 324 322 321 317 310 307 307 309 293 290 288 288 277 273 275 267 266 269 280 284 285 289 278 274 270 261 254 251 246 242 239 240 235 237
328 327 327 325 321 319 317 311 308 307 302 302 299 305 301 292 291 284 274 267 270 260 266 277 283 284 280 270 274 271 257 249 242 244 246 239 235 234
323 323 321 317 313 312 311 309 308 303 297 294 301 303 304 303 298 291 284 277 269 266 261 259 269 280 277 275 272 272 264 256 248 241 238 238 232 228
319 318 316 315 313 312 312 306 300 296 297 295 297 300 302 300 298 299 293 287 277 268 259 254 258 263 272 273 272 270 266 265 263 247 240 236 237 236
322 320 318 314 311 309 302 301 297 297 296 295 294 294 292 293 295 295 291 285 280 272 262 257 261 256 260 267 265 268 269 270 260 250 244 241 237 235
324 323 318 317 315 310 308 301 297 298 295 291 290 291 289 286 290 291 288 287 285 274 280 271 256 252 249 259 261 267 268 255 249 252 252 243 237 233
323 323 317 315 315 317 315 309 303 300 297 296 292 290 291 288 289 284 279 276 276 275 272 270 262 249 241 251 257 262 258 251 251 255 256 256 250 234
317 318 313 312 319 320 316 317 310 307 312 311 304 299 294 290 284 279 276 275 274 275 273 269 259 264 245 242 250 254 251 251 248 250 252 255 255 239
313 312 313 312 317 317 317 322 315 311 318 308 307 299 296 290 287 280 274 272 269 266 268 267 261 256 255 245 243 247 251 249 243 237 245 251 244 237
311 310 310 312 312 313 318 316 311 312 315 309 312 303 297 296 300 285 283 274 271 265 256 257 255 249 251 246 240 237 242 233 215 222 234 233 223 224
310 308 309 308 309 308 316 310 305 308 309 307 308 314 310 306 301 300 290 276 264 257 254 243 246 238 237 244 233 229 230 213 214 212 220 216 206 207
306 308 308 308 304 316 313 307 302 311 312 318 319 310 316 319 315 306 305 291 265 256 251 242 233 233 232 227 216 209 204 208 210 211 208 206 189 187
306 308 308 308 313 310 307 305 307 313 323 320 324 326 329 330 324 314 326 301 248 247 248 242 232 231 233 214 209 207 198 201 203 204 199 199 192 183
311 305 307 307 304 306 303 307 310 321 329 326 324 326 331 337 330 335 337 291 261 248 244 240 225 226 232 229 206 200 196 188 197 188 191 187 183 180
310 310 308 307 308 306 303 307 317 319 324 324 328 331 334 336 337 351 3 290 240 230 216 217 215 213 215 220 201 192 184 189 189 190 189 185 186 185
309 309 310 310 309 310 316 315 310 313 318 318 321 327 335 343 345 354 21 30 214 213 198 211 183 172 194 197 196 183 177 181 176 188 188 188 192 194
308 311 314 312 310 309 312 311 311 314 309 312 316 321 329 340 351 358 8 36 51 79 146 155 171 151 146 131 160 165 171 175 174 178 191 193 193 220
314 313 313 309 306 305 307 308 311 312 308 313 317 320 323 331 349 357 8 20 44 54 62 77 88 95 117 122 129 144 172 177 183 187 188 189 199 212
324 320 313 311 309 309 306 306 309 305 309 308 307 319 330 328 334 349 358 6 25 50 70 74 80 103 130 137 146 149 159 166 181 189 190 192 202 213
321 318 319 318 315 312 310 306 293 291 297 288 291 309 314 327 335 339 349 353 1 27 58 80 80 98 124 152 155 158 164 171 180 186 189 204 214 225
328 322 318 316 314 311 311 310 299 294 299 294 289 290 296 295 302 318 341 7 322 303 13 30 174 135 130 154 169 173 180 187 190 200 212 228 238 248